User: anonymous   Login
Location: Mount Graham
(32.7016°N, 109.8912°W)
Time: 14:18:50
(UTC-07:00)
Language:

Cosmos 1340 - Orbit

View from above orbital plane
View from above orbital plane
View from above satellite
View from above satellite

Ground track
Ground track

The orbit data is extracted from the following two-line orbital elements,

1 13067U 82013A   15091.40725946  .00006206  00000-0  32293-3 0  9990
2 13067 081.1923 354.2025 0003988 019.5380 097.4505 15.15891387805267
Epoch (UTC): 01 April 2015 09:46:27
Eccentricity: 0.0003988
inclination: 81.1923°
perigee height: 515 km
apogee height: 521 km
right ascension of ascending node: 354.2025°
argument of perigee: 19.5380°
revolutions per day: 15.15891387
mean anomaly at epoch: 97.4505°
orbit number at epoch: 80526

The dashed part of the orbit path shows where the satellite is in the earth's shadow,  

DLR